Showing default

FLOCK 4BE 18, 60480

Orbit data source: Space-Track

FLOCK 4BE 18, 60480 is a payload satellite owned by Planet (US) in SSO that was launched on Fri, 16 Aug 2024 UTC via an FALCON 9 launch vehicle from the Air Force Western Test Range (AFWTR). Payload-class satellites include a variety of spacecraft equipped with specific instruments for various scientific and technological missions. These include communications satellites like Starlink; space stations such as the ISS; scientific satellites like the Hubble; Earth observation satellites from companies like Planet Labs, Umbra, and HawkEye 360; GPS; miniature CubeSats for education and research; and military/defense satellites.

Loading next visibility...
Identifier
60480, 2024-149N
Orbit
SSO
Country
Flag of USUS
Related business
Manufacturer
Planet
Mission
Partially operational Commercial Imaging
Bus & Motor
CUBESAT 3U, Unknown motor
Mass
5.7 kg wet, 5.7 kg dry
Launch date (UTC)
2024-08-16 (2 years ago)
Launch vehicle
FALCON 9
Launch site
Air Force Western Test Range (AFWTR)
Object type
Payload
Rocket body
Debris
Shape & HBR
Box + 2 Pan, 1.0 m
Radar Cross Section
0.072 m², Medium (>0.1 m² and < 1m²)

Expand to show TLE details & history
Last TLE update: 7 hours ago

TLE from 7 hours ago
0 FLOCK 4BE 18
1 60480U 24149N   26221.78840929  .00013611  00000-0  30533-3 0  9997
2 60480  97.3711 306.1350 0004773  77.1253 283.0528 15.43508560110571
Epoch: 2026-08-09T18:55Z
TLE epoch observation values (Epoch: 2026-08-09T18:55:18.562Z)
Latitude
-0.00002°
Longitude
64.02729°
Altitude
438.154 km
Speed
7.649 km/s
True Right ascension
20h 24m 32s
True Declination
0° 00' 00"
Sunlit
Object was in full shadow at epoch
Visualization orbit readout
Latitude
Unknown
Longitude
Unknown
Altitude
Unknown
Speed
Unknown
Apparent Right ascension
Unknown
Apparent Declination
Unknown
Sunlit
N/A
Visualization observer readout
Local Sidereal Time
16:33:20
Azimuth
Unknown
Elevation
Unknown
Doppler factor
Unknown
Orbital elements
Apogee altitude
435.948 km
Perigee altitude
429.446 km
Semi-major axis
6,810.834 km
Eccentricity
0.00048
Inclination
97.3711°
RAAN
306.135°
Arg. of periapsis
77.1253°
True anomaly
282.99951°
Mean anomaly
283.0528°
Eccentric anomaly
283.02616°
Mean motion
3.86138 °/min
Orbital period
93.23 mins
BSTAR
0.00030533
Loading maneuver chart data...
Computing Atmospheric mass density...
Loading historical data...
Loading historical data...
Loading historical data...
Loading historical data...
Loading historical data...
Loading historical data...
Loading historical data...

Documentation

Showing up to 5 results
|